Flag for U.S.A. Weather past 2 weeks in St. Croix Falls, Wisconsin, U.S.A.

Now
72 °F

Scattered clouds.


Feels Like: 76 °F
Forecast: 54 / 69 °F
Wind: 18 mph from South

Location: L O Simenstad Municipal Airport

Current Time: Sep 19, 2014 at 1:27:49 PM

Latest Report: Sep 19, 2014 at 12:55 PM


Visibility: 10 mi

Pressure: 29.78 "Hg

Humidity: 63%

Dew point: 58 °F

Location of St. Croix FallsLocation

Historic Weather in St. Croix Falls — Graph

°F

St. Croix Falls temperature yesterday

Maximum temperature yesterday: 69 °F (at 4:15 PM)
Minimum temperature yesterday: 46 °F (at 3:35 AM)
Average temperature yesterday: 56 °F

Past Weeks' High & Low Weather Summary

 TemperatureHumidityPressure
High81 °F (Sep 4, 2:15 PM)100% (Sep 5, 9:55 PM)30.46 "Hg (Sep 5, 9:55 PM)
Low33 °F (Sep 13, 6:15 AM)33% (Sep 7, 4:55 PM)29.67 "Hg (Sep 4, 3:35 PM)
Average56 °F81%30.10 "Hg
* Reported Sep 4 12:15 PM — Sep 19 12:15 PM, St. Croix Falls, Weather by CustomWeather, © 2014

Note: Actual official high and low records may vary slightly from our data, if they occured in-between our weather recording intervals... More about our weather records

Advertising

St. Croix Falls weather history for previous 24 hours

 ConditionsComfort  
Time TempWeatherWind HumidityBarometerVisibility
12:15 PM
Sep 19
69 °FSunny.22 mph67%29.79 "Hg10 mi
11:55 AM67 °FPartly sunny.22 mph68%29.79 "Hg10 mi
11:35 AM65 °FOvercast.16 mph70%29.82 "Hg10 mi
11:15 AM65 °FOvercast.15 mph71%29.84 "Hg10 mi
10:55 AM64 °FOvercast.16 mph71%29.85 "Hg10 mi
10:15 AM64 °FPartly sunny.14 mph69%29.89 "Hg10 mi
9:55 AM63 °FScattered clouds.14 mph69%29.89 "Hg10 mi
9:15 AM60 °FBroken clouds.15 mph72%29.91 "Hg10 mi
8:55 AM60 °FPartly sunny.10 mph72%29.95 "Hg10 mi
8:15 AM59 °FScattered clouds.13 mph72%29.94 "Hg10 mi
7:55 AM58 °FScattered clouds.12 mph75%29.95 "Hg10 mi
7:35 AM58 °FPassing clouds.10 mph75%29.96 "Hg10 mi
7:15 AM58 °FClear.13 mph76%29.96 "Hg10 mi
6:55 AM58 °FPassing clouds.12 mph78%29.97 "Hg10 mi
6:15 AM58 °FOvercast.12 mph79%29.99 "Hg10 mi
5:55 AM58 °FPassing clouds.9 mph79%29.99 "Hg10 mi
5:35 AM58 °FClear.10 mph81%29.98 "Hg10 mi
5:15 AM58 °FClear.13 mph87%29.98 "Hg10 mi
4:55 AM58 °FClear.9 mph87%29.99 "Hg10 mi
4:35 AM58 °FPassing clouds.9 mph90%29.98 "Hg10 mi
4:15 AM57 °FClear.9 mph92%29.98 "Hg10 mi
3:55 AM57 °FClear.9 mph94%29.99 "Hg10 mi
3:35 AM56 °FClear.8 mph97%29.99 "Hg10 mi
3:15 AM57 °FClear.8 mph97%30.00 "Hg10 mi
2:55 AM56 °FClear.8 mph99%30.01 "Hg10 mi
2:35 AM57 °FClear.7 mph99%30.01 "Hg10 mi
2:15 AM57 °FClear.8 mph98%30.01 "Hg10 mi
1:55 AM57 °FClear.9 mph100%30.01 "Hg10 mi
1:15 AM57 °FClear.8 mph99%30.02 "Hg10 mi
12:55 AM57 °FClear.7 mph99%30.03 "Hg10 mi
12:35 AM58 °FClear.9 mph99%30.02 "Hg10 mi
12:15 AM58 °FClear.9 mph99%30.03 "Hg10 mi
11:55 PM
Sep 18
58 °FClear.9 mph98%30.02 "Hg10 mi
11:35 PM58 °FClear.9 mph96%30.03 "Hg10 mi
11:15 PM59 °FClear.8 mph95%30.03 "Hg10 mi
10:55 PM59 °FClear.12 mph94%30.03 "Hg10 mi
10:15 PM59 °FClear.10 mph97%30.03 "Hg10 mi
9:55 PM58 °FClear.9 mph97%30.04 "Hg10 mi
9:15 PM59 °FClear.9 mph95%30.04 "Hg10 mi
8:55 PM59 °FClear.10 mph94%30.05 "Hg10 mi
8:15 PM60 °FSunny.10 mph87%30.04 "Hg10 mi
7:55 PM61 °FSunny.10 mph85%30.04 "Hg10 mi
7:35 PM61 °FSunny.8 mph84%30.03 "Hg10 mi
7:15 PM62 °FSunny.9 mph82%30.03 "Hg10 mi
6:55 PM64 °FSunny.9 mph78%30.03 "Hg10 mi
6:35 PM65 °FSunny.10 mph75%30.03 "Hg10 mi
6:15 PM66 °FSunny.10 mph71%30.04 "Hg10 mi
5:55 PM67 °FSunny.13 mph70%30.04 "Hg10 mi
5:35 PM68 °FSunny.9 mph69%30.04 "Hg10 mi
5:15 PM68 °FSunny.12 mph67%30.04 "Hg10 mi
4:55 PM69 °FSunny.8 mph67%30.05 "Hg10 mi
4:35 PM69 °FSunny.9 mph65%30.05 "Hg10 mi
4:15 PM69 °FSunny.10 mph65%30.05 "Hg10 mi
3:55 PM69 °FScattered clouds.9 mph64%30.06 "Hg10 mi
3:35 PM68 °FSunny.8 mph67%30.07 "Hg10 mi
3:15 PM68 °FSunny.8 mph67%30.07 "Hg10 mi
2:55 PM67 °FSunny.8 mph68%30.09 "Hg10 mi
2:15 PM65 °FSunny.8 mph70%30.11 "Hg10 mi
1:55 PM64 °FSunny.8 mph71%30.11 "Hg10 mi
1:35 PM63 °FSunny.8 mph74%30.12 "Hg10 mi
1:15 PM62 °FScattered clouds.8 mph76%30.13 "Hg10 mi
Weather by CustomWeather, © 2014

See weather overviewHow to use our weather pages